VIS870 RKPC-RCTP

Flight info

Callsign VIS870
Flight time 2h 1m
Altitude 40000
Route PANSI2W PANSI Y711 MUGUS Y742 SALMI B576 BAKER BAKER1B
Aircraft B748/H-SDE3FGHIM1M2RWXY/LB1

Departure

Time 2026-05-04 14:31
Airport Jeju International Airport (RKPC)

Arrival

Time 2026-05-04 16:33
Airport Taiwan Taoyuan International Airport (RCTP)
Time Latitude Longitude Altitude Speed Heading
2026-05-04 13:30 33.50724 126.49178 99 ft 0 kts 150°
2026-05-04 14:21 33.50728 126.49175 99 ft 4 kts 148°
2026-05-04 14:21 33.50746 126.49163 98 ft 0 kts 142°
2026-05-04 14:21 33.50752 126.49159 98 ft 1 kts 118°
2026-05-04 14:21 33.50756 126.49150 97 ft 2 kts 91°
2026-05-04 14:22 33.50758 126.49131 96 ft 4 kts 106°
2026-05-04 14:22 33.50763 126.49097 98 ft 4 kts 87°
2026-05-04 14:22 33.50758 126.49062 97 ft 3 kts 64°
2026-05-04 14:22 33.50758 126.49061 97 ft 0 kts 64°
2026-05-04 14:23 33.50766 126.49080 99 ft 8 kts 62°
2026-05-04 14:24 33.50817 126.49176 99 ft 19 kts 57°
2026-05-04 14:24 33.50891 126.49327 103 ft 21 kts 60°
2026-05-04 14:24 33.50961 126.49471 105 ft 20 kts 58°
2026-05-04 14:24 33.51058 126.49610 103 ft 23 kts 34°
2026-05-04 14:25 33.51204 126.49672 100 ft 23 kts 20°
2026-05-04 14:25 33.51322 126.49811 95 ft 4 kts 48°
2026-05-04 14:25 33.51362 126.49830 94 ft 5 kts 359°
2026-05-04 14:26 33.51373 126.49828 93 ft 0 kts 347°
2026-05-04 14:27 33.51374 126.49828 93 ft 1 kts 346°
2026-05-04 14:28 33.51423 126.49790 94 ft 13 kts 316°
2026-05-04 14:28 33.51448 126.49738 94 ft 2 kts 282°
2026-05-04 14:28 33.51450 126.49706 96 ft 6 kts 270°
2026-05-04 14:28 33.51442 126.49653 94 ft 11 kts 257°
2026-05-04 14:29 33.51402 126.49579 95 ft 0 kts 239°
2026-05-04 14:30 33.51258 126.49303 98 ft 95 kts 238°
2026-05-04 14:31 33.50725 126.48288 191 ft 180 kts 238°
2026-05-04 14:31 33.49299 126.45449 1448 ft 198 kts 236°
2026-05-04 14:32 33.47646 126.42295 2769 ft 244 kts 239°
2026-05-04 14:32 33.46728 126.40501 3779 ft 257 kts 239°
2026-05-04 14:32 33.45763 126.38630 4721 ft 268 kts 239°
2026-05-04 14:32 33.44775 126.36720 4995 ft 272 kts 239°
2026-05-04 14:33 33.43790 126.34814 4989 ft 271 kts 237°
2026-05-04 14:33 33.42546 126.33167 5000 ft 270 kts 213°
2026-05-04 14:33 33.40814 126.32336 5012 ft 270 kts 195°
2026-05-04 14:33 33.39008 126.31833 5012 ft 270 kts 192°
2026-05-04 14:34 33.37176 126.31353 5007 ft 270 kts 193°
2026-05-04 14:34 33.35360 126.30827 5325 ft 272 kts 194°
2026-05-04 14:34 33.33529 126.30283 5788 ft 275 kts 194°
2026-05-04 14:34 33.31688 126.29745 6254 ft 276 kts 194°
2026-05-04 14:35 33.29828 126.29208 6710 ft 277 kts 194°
2026-05-04 14:35 33.27954 126.28666 7140 ft 277 kts 195°
2026-05-04 14:35 33.26071 126.28119 7571 ft 279 kts 195°
2026-05-04 14:35 33.24179 126.27570 8016 ft 281 kts 195°
2026-05-04 14:36 33.22273 126.27018 8466 ft 283 kts 195°
2026-05-04 14:36 33.20387 126.26472 8992 ft 283 kts 195°
2026-05-04 14:36 33.18455 126.25913 9606 ft 286 kts 195°
2026-05-04 14:36 33.16506 126.25348 10221 ft 290 kts 196°
2026-05-04 14:37 33.14538 126.24779 10795 ft 292 kts 196°
2026-05-04 14:37 33.12561 126.24207 11378 ft 294 kts 196°
2026-05-04 14:37 33.10565 126.23630 11970 ft 296 kts 196°
2026-05-04 14:37 33.08552 126.23049 12571 ft 298 kts 196°
2026-05-04 14:38 33.06530 126.22465 13189 ft 300 kts 197°
2026-05-04 14:38 33.04490 126.21876 13810 ft 303 kts 197°
2026-05-04 14:38 33.02436 126.21284 14397 ft 305 kts 197°
2026-05-04 14:38 33.00397 126.20682 14959 ft 306 kts 200°
2026-05-04 14:39 32.98401 126.19821 15549 ft 307 kts 203°
2026-05-04 14:39 32.96381 126.18962 16144 ft 309 kts 203°
2026-05-04 14:39 32.94346 126.18100 16741 ft 312 kts 203°
2026-05-04 14:40 32.90243 126.16334 17984 ft 316 kts 204°
2026-05-04 14:40 32.88167 126.15443 18600 ft 318 kts 204°
2026-05-04 14:40 32.86079 126.14550 19158 ft 320 kts 204°
2026-05-04 14:40 32.83977 126.13650 19729 ft 322 kts 204°
2026-05-04 14:41 32.81867 126.12745 20312 ft 324 kts 204°
2026-05-04 14:41 32.79768 126.11847 20888 ft 326 kts 205°
2026-05-04 14:41 32.75482 126.10014 22105 ft 330 kts 205°
2026-05-04 14:42 32.71131 126.08155 23374 ft 335 kts 206°
2026-05-04 14:42 32.68931 126.07216 23980 ft 337 kts 206°
2026-05-04 14:42 32.66728 126.06277 24533 ft 336 kts 206°
2026-05-04 14:43 32.64561 126.05354 25072 ft 335 kts 207°
2026-05-04 14:43 32.62366 126.04418 25637 ft 335 kts 207°
2026-05-04 14:43 32.60179 126.03486 26216 ft 334 kts 208°
2026-05-04 14:43 32.57989 126.02553 26806 ft 334 kts 208°
2026-05-04 14:44 32.55801 126.01622 27400 ft 334 kts 208°
2026-05-04 14:44 32.53612 126.00691 28020 ft 335 kts 209°
2026-05-04 14:44 32.51418 125.99758 28647 ft 336 kts 209°
2026-05-04 14:44 32.49219 125.98823 29287 ft 336 kts 210°
2026-05-04 14:45 32.47014 125.97887 29944 ft 337 kts 210°
2026-05-04 14:45 32.44804 125.96950 30558 ft 338 kts 210°
2026-05-04 14:45 32.42615 125.96023 31128 ft 338 kts 210°
2026-05-04 14:45 32.40396 125.95084 31686 ft 338 kts 210°
2026-05-04 14:46 32.38185 125.94148 32267 ft 338 kts 210°
2026-05-04 14:46 32.35971 125.93213 32863 ft 337 kts 210°
2026-05-04 14:46 32.33772 125.92283 33454 ft 335 kts 210°
2026-05-04 14:46 32.31581 125.91358 34081 ft 333 kts 210°
2026-05-04 14:47 32.29413 125.90442 34616 ft 330 kts 210°
2026-05-04 14:47 32.27219 125.89508 34700 ft 341 kts 210°
2026-05-04 14:47 32.24947 125.88541 34743 ft 354 kts 210°
2026-05-04 14:47 32.22618 125.87561 34806 ft 366 kts 209°
2026-05-04 14:48 32.20179 125.86538 34877 ft 377 kts 209°
2026-05-04 14:48 32.17670 125.85482 34958 ft 388 kts 209°
2026-05-04 14:48 32.15090 125.84394 35037 ft 399 kts 209°
2026-05-04 14:48 32.12439 125.83279 35169 ft 409 kts 208°
2026-05-04 14:49 32.09719 125.82135 35182 ft 420 kts 208°
2026-05-04 14:49 32.06962 125.80982 35180 ft 422 kts 208°
2026-05-04 14:49 32.01455 125.78673 35181 ft 423 kts 208°
2026-05-04 14:50 31.95901 125.76336 35179 ft 423 kts 208°
2026-05-04 14:50 31.90354 125.74004 35177 ft 423 kts 208°
2026-05-04 14:51 31.84809 125.71677 35170 ft 423 kts 208°
2026-05-04 14:51 31.79302 125.69367 35164 ft 423 kts 208°
2026-05-04 14:52 31.73765 125.67048 35162 ft 423 kts 208°
2026-05-04 14:52 31.68228 125.64731 35164 ft 422 kts 208°
2026-05-04 14:53 31.62686 125.62409 35183 ft 422 kts 208°
2026-05-04 14:53 31.57146 125.60095 35170 ft 423 kts 208°
2026-05-04 14:54 31.51643 125.57796 35175 ft 423 kts 209°
2026-05-04 14:54 31.46107 125.55473 35169 ft 423 kts 209°
2026-05-04 14:55 31.40566 125.53156 35168 ft 423 kts 209°
2026-05-04 14:55 31.35025 125.50839 35171 ft 423 kts 209°
2026-05-04 14:56 31.29520 125.48542 35172 ft 423 kts 209°
2026-05-04 14:56 31.23976 125.46231 35173 ft 423 kts 209°
2026-05-04 14:57 31.18433 125.43922 35172 ft 423 kts 209°
2026-05-04 14:57 31.12891 125.41618 35172 ft 423 kts 209°
2026-05-04 14:58 31.07391 125.39333 35176 ft 423 kts 209°
2026-05-04 14:58 31.01848 125.37034 35173 ft 423 kts 209°
2026-05-04 14:59 30.96308 125.34738 35180 ft 423 kts 209°
2026-05-04 15:00 30.87995 125.31300 35171 ft 422 kts 209°
2026-05-04 15:00 30.82459 125.29012 35172 ft 422 kts 209°
2026-05-04 15:01 30.74189 125.25602 35173 ft 423 kts 209°
2026-05-04 15:01 30.68652 125.23322 35176 ft 422 kts 209°
2026-05-04 15:02 30.63116 125.21044 35174 ft 422 kts 209°
2026-05-04 15:02 30.57612 125.18784 35180 ft 422 kts 209°
2026-05-04 15:03 30.52084 125.16515 35173 ft 422 kts 209°
2026-05-04 15:03 30.46545 125.14245 35175 ft 422 kts 209°
2026-05-04 15:04 30.41002 125.11975 35170 ft 422 kts 209°
2026-05-04 15:04 30.35464 125.09709 35175 ft 422 kts 209°
2026-05-04 15:05 30.29958 125.07460 35173 ft 423 kts 210°
2026-05-04 15:05 30.24417 125.05198 35175 ft 423 kts 210°
2026-05-04 15:06 30.18872 125.02939 35170 ft 422 kts 210°
2026-05-04 15:07 30.10551 124.99551 35169 ft 423 kts 210°
2026-05-04 15:07 30.05032 124.97309 35168 ft 423 kts 210°
2026-05-04 15:08 29.99482 124.95056 35172 ft 423 kts 210°
2026-05-04 15:08 29.93994 124.92692 35172 ft 421 kts 211°
2026-05-04 15:09 29.88499 124.90347 35168 ft 421 kts 210°
2026-05-04 15:09 29.83049 124.88026 35169 ft 420 kts 210°
2026-05-04 15:10 29.74830 124.84526 35172 ft 419 kts 210°
2026-05-04 15:11 29.66607 124.81027 35167 ft 420 kts 210°
2026-05-04 15:11 29.61131 124.78704 35166 ft 420 kts 210°
2026-05-04 15:12 29.55688 124.76395 35167 ft 420 kts 210°
2026-05-04 15:12 29.50213 124.74077 35169 ft 419 kts 210°
2026-05-04 15:13 29.44741 124.71762 35167 ft 419 kts 210°
2026-05-04 15:13 29.39273 124.69452 35170 ft 419 kts 211°
2026-05-04 15:14 29.33846 124.67161 35169 ft 418 kts 211°
2026-05-04 15:14 29.28392 124.64861 35167 ft 418 kts 211°
2026-05-04 15:15 29.22933 124.62563 35176 ft 418 kts 211°
2026-05-04 15:15 29.17481 124.60270 35162 ft 417 kts 211°
2026-05-04 15:16 29.09312 124.56838 35166 ft 417 kts 211°
2026-05-04 15:17 29.01184 124.53430 35170 ft 417 kts 211°
2026-05-04 15:17 28.93388 124.49413 35184 ft 401 kts 222°
2026-05-04 15:18 28.88842 124.45784 35185 ft 399 kts 223°
2026-05-04 15:19 28.82066 124.40345 35180 ft 398 kts 223°
2026-05-04 15:19 28.75268 124.34895 35172 ft 398 kts 223°
2026-05-04 15:20 28.70735 124.31263 35170 ft 399 kts 223°
2026-05-04 15:20 28.66229 124.27659 35173 ft 399 kts 223°
2026-05-04 15:21 28.61693 124.24033 35170 ft 399 kts 223°
2026-05-04 15:22 28.54877 124.18593 35175 ft 399 kts 223°
2026-05-04 15:22 28.48056 124.13157 35168 ft 399 kts 223°
2026-05-04 15:23 28.43532 124.09557 35169 ft 400 kts 223°
2026-05-04 15:23 28.38977 124.05936 35169 ft 400 kts 223°
2026-05-04 15:24 28.29868 123.98696 35166 ft 400 kts 224°
2026-05-04 15:25 28.25400 123.95019 35168 ft 400 kts 224°
2026-05-04 15:26 28.18607 123.89506 35168 ft 401 kts 224°
2026-05-04 15:26 28.11815 123.83984 35165 ft 401 kts 223°
2026-05-04 15:27 28.05042 123.78490 35175 ft 401 kts 223°
2026-05-04 15:28 27.98224 123.72969 35162 ft 402 kts 223°
2026-05-04 15:29 27.91397 123.67441 35159 ft 402 kts 223°
2026-05-04 15:30 27.75492 123.54502 35160 ft 404 kts 223°
2026-05-04 15:31 27.68633 123.48942 35160 ft 405 kts 223°
2026-05-04 15:32 27.57210 123.39699 35159 ft 405 kts 223°
2026-05-04 15:34 27.45746 123.30448 35153 ft 406 kts 223°
2026-05-04 15:34 27.38878 123.24917 35158 ft 407 kts 223°
2026-05-04 15:35 27.31968 123.19361 35163 ft 407 kts 223°
2026-05-04 15:36 27.25053 123.13809 35160 ft 407 kts 223°
2026-05-04 15:36 27.20473 123.10138 35155 ft 407 kts 223°
2026-05-04 15:37 27.15852 123.06436 35151 ft 408 kts 223°
2026-05-04 15:37 27.11229 123.02737 35152 ft 409 kts 222°
2026-05-04 15:38 27.06588 122.99028 35147 ft 410 kts 222°
2026-05-04 15:38 27.01966 122.95352 35149 ft 410 kts 222°
2026-05-04 15:39 26.97310 122.91648 35153 ft 410 kts 222°
2026-05-04 15:40 26.90321 122.86096 35154 ft 411 kts 222°
2026-05-04 15:40 26.85676 122.82410 35148 ft 412 kts 222°
2026-05-04 15:41 26.80989 122.78696 35151 ft 413 kts 222°
2026-05-04 15:41 26.76286 122.74972 35153 ft 414 kts 222°
2026-05-04 15:42 26.71578 122.71249 35152 ft 415 kts 222°
2026-05-04 15:42 26.66893 122.67547 35069 ft 416 kts 222°
2026-05-04 15:42 26.65289 122.66278 34615 ft 420 kts 222°
2026-05-04 15:43 26.62890 122.64380 33712 ft 423 kts 221°
2026-05-04 15:43 26.59805 122.61964 32575 ft 390 kts 221°
2026-05-04 15:43 26.57680 122.60301 31765 ft 356 kts 222°
2026-05-04 15:43 26.55726 122.58753 30953 ft 337 kts 223°
2026-05-04 15:44 26.53826 122.57235 30133 ft 334 kts 222°
2026-05-04 15:44 26.52575 122.56244 29503 ft 333 kts 222°
2026-05-04 15:44 26.50685 122.54760 28561 ft 331 kts 221°
2026-05-04 15:44 26.48199 122.52808 27514 ft 328 kts 221°
2026-05-04 15:45 26.46365 122.51368 27171 ft 315 kts 221°
2026-05-04 15:45 26.44622 122.50002 27146 ft 297 kts 222°
2026-05-04 15:45 26.43009 122.48741 27126 ft 263 kts 223°
2026-05-04 15:45 26.41618 122.47658 27111 ft 226 kts 224°
2026-05-04 15:46 26.40418 122.46713 27099 ft 197 kts 225°
2026-05-04 15:46 26.39707 122.46151 27085 ft 181 kts 225°
2026-05-04 15:46 26.38350 122.45067 27110 ft 181 kts 225°
2026-05-04 15:46 26.37663 122.44520 27132 ft 185 kts 225°
2026-05-04 15:47 26.36238 122.43398 27135 ft 195 kts 225°
2026-05-04 15:47 26.35101 122.42505 27133 ft 205 kts 224°
2026-05-04 15:47 26.33906 122.41566 27145 ft 216 kts 224°
2026-05-04 15:47 26.32647 122.40580 27162 ft 226 kts 223°
2026-05-04 15:48 26.31785 122.39904 27155 ft 232 kts 223°
2026-05-04 15:48 26.30441 122.38851 27160 ft 241 kts 223°
2026-05-04 15:48 26.27611 122.36635 27187 ft 256 kts 223°
2026-05-04 15:49 26.25649 122.35098 27154 ft 265 kts 222°
2026-05-04 15:49 26.24625 122.34297 27156 ft 269 kts 222°
2026-05-04 15:49 26.22573 122.32691 27173 ft 275 kts 222°
2026-05-04 15:49 26.20992 122.31455 27158 ft 280 kts 222°
2026-05-04 15:50 26.19932 122.30625 27175 ft 283 kts 222°
2026-05-04 15:50 26.18309 122.29357 27149 ft 287 kts 222°
2026-05-04 15:50 26.16665 122.28072 27148 ft 290 kts 222°
2026-05-04 15:50 26.15008 122.26776 27160 ft 293 kts 221°
2026-05-04 15:51 26.13331 122.25467 27051 ft 297 kts 221°
2026-05-04 15:51 26.11550 122.24084 25957 ft 328 kts 220°
2026-05-04 15:51 26.09643 122.22631 24755 ft 341 kts 220°
2026-05-04 15:51 26.07683 122.21151 23573 ft 341 kts 220°
2026-05-04 15:52 26.05745 122.19670 22188 ft 334 kts 220°
2026-05-04 15:52 26.03851 122.18214 20780 ft 329 kts 220°
2026-05-04 15:52 26.01977 122.16776 19400 ft 326 kts 220°
2026-05-04 15:52 26.00121 122.15357 18020 ft 322 kts 219°
2026-05-04 15:53 25.98281 122.13952 16539 ft 319 kts 219°
2026-05-04 15:53 25.96461 122.12560 15124 ft 316 kts 219°
2026-05-04 15:53 25.94658 122.11181 13746 ft 314 kts 219°
2026-05-04 15:53 25.92889 122.09828 12277 ft 312 kts 218°
2026-05-04 15:54 25.91111 122.08470 10859 ft 310 kts 217°
2026-05-04 15:54 25.89372 122.07146 10169 ft 291 kts 217°
2026-05-04 15:54 25.87803 122.05956 10131 ft 265 kts 217°
2026-05-04 15:54 25.86296 122.04802 10130 ft 259 kts 217°
2026-05-04 15:55 25.84801 122.03658 10131 ft 258 kts 217°
2026-05-04 15:55 25.83309 122.02520 10127 ft 259 kts 217°
2026-05-04 15:55 25.81814 122.01381 10068 ft 262 kts 217°
2026-05-04 15:55 25.80322 122.00246 10055 ft 262 kts 217°
2026-05-04 15:56 25.78847 121.99122 10051 ft 261 kts 217°
2026-05-04 15:56 25.77349 121.97981 10047 ft 261 kts 217°
2026-05-04 15:56 25.75855 121.96845 10048 ft 260 kts 217°
2026-05-04 15:56 25.74364 121.95710 10044 ft 260 kts 217°
2026-05-04 15:57 25.72877 121.94579 10041 ft 260 kts 217°
2026-05-04 15:57 25.71380 121.93436 9685 ft 264 kts 217°
2026-05-04 15:57 25.69873 121.92269 8679 ft 266 kts 217°
2026-05-04 15:57 25.68354 121.91094 7696 ft 267 kts 217°
2026-05-04 15:58 25.66828 121.89919 6758 ft 267 kts 216°
2026-05-04 15:58 25.65330 121.88766 6043 ft 261 kts 216°
2026-05-04 15:58 25.64038 121.87410 5444 ft 262 kts 236°
2026-05-04 15:58 25.63122 121.85678 5087 ft 263 kts 239°
2026-05-04 15:59 25.62235 121.83912 5047 ft 265 kts 239°
2026-05-04 15:59 25.61339 121.82145 5050 ft 264 kts 239°
2026-05-04 15:59 25.60432 121.80380 5052 ft 263 kts 239°
2026-05-04 15:59 25.59526 121.78619 5063 ft 263 kts 239°
2026-05-04 16:00 25.58622 121.76855 5050 ft 263 kts 239°
2026-05-04 16:00 25.57716 121.75091 5048 ft 264 kts 239°
2026-05-04 16:00 25.56823 121.73348 5048 ft 263 kts 239°
2026-05-04 16:00 25.55917 121.71582 5046 ft 264 kts 239°
2026-05-04 16:01 25.55008 121.69813 5049 ft 264 kts 239°
2026-05-04 16:01 25.54134 121.68116 5025 ft 240 kts 239°
2026-05-04 16:01 25.53353 121.66592 5008 ft 216 kts 238°
2026-05-04 16:01 25.52644 121.65212 5013 ft 201 kts 238°
2026-05-04 16:02 25.51948 121.63868 5019 ft 199 kts 238°
2026-05-04 16:02 25.51259 121.62528 5022 ft 199 kts 238°
2026-05-04 16:02 25.49893 121.59871 5026 ft 201 kts 238°
2026-05-04 16:03 25.49204 121.58533 5026 ft 200 kts 238°
2026-05-04 16:03 25.48467 121.57233 5015 ft 199 kts 226°
2026-05-04 16:03 25.47552 121.56096 5032 ft 199 kts 228°
2026-05-04 16:03 25.46659 121.54938 5035 ft 199 kts 227°
2026-05-04 16:04 25.45766 121.53789 5037 ft 198 kts 227°
2026-05-04 16:04 25.43978 121.51497 5038 ft 197 kts 227°
2026-05-04 16:04 25.43095 121.50366 5039 ft 197 kts 227°
2026-05-04 16:05 25.42201 121.49221 5035 ft 197 kts 227°
2026-05-04 16:05 25.41310 121.48076 5029 ft 196 kts 227°
2026-05-04 16:05 25.39225 121.46278 5033 ft 194 kts 186°
2026-05-04 16:06 25.37881 121.46199 5032 ft 194 kts 181°
2026-05-04 16:06 25.34309 121.46065 5035 ft 193 kts 182°
2026-05-04 16:07 25.32533 121.45979 5032 ft 193 kts 182°
2026-05-04 16:07 25.28517 121.45788 5021 ft 191 kts 183°
2026-05-04 16:08 25.27182 121.45723 5022 ft 191 kts 184°
2026-05-04 16:08 25.24148 121.43084 5031 ft 192 kts 229°
2026-05-04 16:09 25.22487 121.40947 5014 ft 167 kts 229°
2026-05-04 16:09 25.21005 121.39087 4993 ft 159 kts 227°
2026-05-04 16:10 25.19552 121.37270 4979 ft 161 kts 229°
2026-05-04 16:11 25.17418 121.34544 4969 ft 156 kts 230°
2026-05-04 16:11 25.16706 121.33635 4947 ft 157 kts 230°
2026-05-04 16:12 25.14599 121.30945 4959 ft 150 kts 231°
2026-05-04 16:12 25.12478 121.28221 4437 ft 164 kts 230°
2026-05-04 16:13 25.10921 121.26242 3212 ft 178 kts 223°
2026-05-04 16:13 25.09328 121.24205 2934 ft 176 kts 222°
2026-05-04 16:14 25.07752 121.22172 2958 ft 175 kts 224°
2026-05-04 16:14 25.06158 121.20104 2964 ft 178 kts 224°
2026-05-04 16:15 25.03753 121.17098 2967 ft 175 kts 224°
2026-05-04 16:16 25.02226 121.14978 2968 ft 174 kts 233°
2026-05-04 16:16 25.00753 121.10867 3097 ft 233 kts 255°
2026-05-04 16:17 25.00849 121.07636 4678 ft 220 kts 290°
2026-05-04 16:18 25.05269 121.05741 4988 ft 260 kts 358°
2026-05-04 16:18 25.07063 121.05802 4976 ft 260 kts 359°
2026-05-04 16:19 25.12317 121.06612 4936 ft 259 kts 21°
2026-05-04 16:19 25.15274 121.08893 4954 ft 261 kts 38°
2026-05-04 16:20 25.18932 121.13361 4962 ft 265 kts 48°
2026-05-04 16:20 25.20879 121.16686 4965 ft 261 kts 60°
2026-05-04 16:21 25.21997 121.22798 4983 ft 297 kts 91°
2026-05-04 16:22 25.22355 121.27411 4966 ft 311 kts 81°
2026-05-04 16:22 25.23623 121.34426 4966 ft 310 kts 78°
2026-05-04 16:23 25.26739 121.40393 5108 ft 306 kts 40°
2026-05-04 16:24 25.32881 121.46468 5889 ft 302 kts 39°
2026-05-04 16:25 25.35328 121.50152 5588 ft 309 kts 86°
2026-05-04 16:26 25.29730 121.50556 6708 ft 245 kts 230°
2026-05-04 16:26 25.26130 121.46198 6631 ft 242 kts 229°
2026-05-04 16:27 25.24168 121.43821 5594 ft 182 kts 229°
2026-05-04 16:28 25.21915 121.40633 3703 ft 182 kts 249°
2026-05-04 16:28 25.19566 121.37307 2985 ft 187 kts 224°
2026-05-04 16:29 25.16212 121.33005 1986 ft 188 kts 224°
2026-05-04 16:30 25.13714 121.29812 1534 ft 171 kts 225°
2026-05-04 16:31 25.12222 121.27904 952 ft 164 kts 226°
2026-05-04 16:31 25.10013 121.25063 417 ft 169 kts 226°
2026-05-04 16:32 25.08096 121.22628 90 ft 70 kts 229°
2026-05-04 16:33 25.07627 121.22093 92 ft 23 kts 195°
2026-05-04 16:33 25.07519 121.22059 90 ft 0 kts 194°
2026-05-04 16:34 25.07447 121.22042 90 ft 16 kts 188°
2026-05-04 16:34 25.07339 121.22071 93 ft 12 kts 134°
2026-05-04 16:35 25.07419 121.22255 93 ft 26 kts 47°
2026-05-04 16:35 25.07723 121.22661 92 ft 6 kts 88°
2026-05-04 16:36 25.07711 121.22695 93 ft 4 kts 129°
2026-05-04 16:36 25.07532 121.22874 100 ft 31 kts 135°
2026-05-04 16:37 25.07250 121.23143 112 ft 10 kts 128°
2026-05-04 16:37 25.07244 121.23171 112 ft 3 kts 88°
2026-05-04 16:37 25.07279 121.23221 112 ft 2 kts 22°
2026-05-04 16:38 25.07319 121.23205 112 ft 7 kts 325°
2026-05-04 16:39 25.07358 121.23167 106 ft 0 kts 319°